Home   Weather   Aarau   Past weeks

Flag for Switzerland Past Weather in Aarau, Aargau, Switzerland — Yesterday and Last 2 Weeks

Now
61 °F

Cool.


Feels Like: 61 °F
Forecast: 50 / 72 °F
Wind: 2 mph from Southeast

Location: Wynau

Current Time: Aug 19, 2017 at 4:06:28 am

Latest Report: Aug 19, 2017 at 3:00 am


Visibility: N/A

Pressure: 30.08 "Hg

Humidity: 98%

Dew Point: 61 °F

Location of AarauLocation

Past Weather in Aarau — Graph

°F

Aarau Temperature Yesterday

Maximum temperature yesterday: 85 °F (at 4:00 pm)
Minimum temperature yesterday: 62 °F (at 6:00 am)
Average temperature yesterday: 70 °F

High & Low Weather Summary for the Past Weeks

 TemperatureHumidityPressure
High85 °F (Aug 18, 4:00 pm)100% (Aug 7, 6:00 am)30.20 "Hg (Aug 7, 6:00 am)
Low52 °F (Aug 7, 6:00 am)38% (Aug 7, 4:00 pm)29.84 "Hg (Aug 18, 4:00 pm)
Average65 °F80%30.07 "Hg
* Reported Aug 4 2:00 am — Aug 19 2:00 am, Aarau. Weather by CustomWeather, © 2017

Note: Actual official high and low records may vary slightly from our data, if they occured in-between our weather recording intervals... More about our weather records

Advertising

Aarau Weather History for the Previous 24 Hours

Scroll right to see more
 ConditionsComfort  
Time TempWeatherWind HumidityBarometerVisibility
2:00 am
Sat, Aug 19
62 °FCool.1 mph99%30.07 "HgN/A
1:00 am64 °FMild.1 mph98%30.09 "HgN/A
12:00 am64 °FMild.2 mph96%30.09 "HgN/A
11:00 pm
Fri, Aug 18
64 °FMild.1 mph98%30.09 "HgN/A
10:00 pm64 °FMild.6 mph95%30.06 "HgN/A
9:00 pm64 °FMild.5 mph93%30.05 "HgN/A
8:00 pm65 °FMild.3 mph93%30.04 "HgN/A
7:00 pm66 °FMild.7 mph79%30.01 "HgN/A
6:00 pm77 °FWarm.8 mph58%29.87 "HgN/A
5:00 pm81 °FWarm.8 mph53%29.85 "HgN/A
4:00 pm85 °FWarm.8 mph46%29.84 "HgN/A
3:00 pm84 °FWarm.7 mph48%29.86 "HgN/A
2:00 pm82 °FWarm.7 mph52%29.90 "HgN/A
1:00 pm80 °FWarm.6 mph59%29.93 "HgN/A
12:00 pm78 °FWarm.6 mph62%29.96 "HgN/A
11:00 am75 °FMild.3 mph71%29.99 "HgN/A
10:00 am72 °FMild.3 mph78%30.01 "HgN/A
9:00 am67 °FMild.1 mph90%30.03 "HgN/A
8:00 am64 °FMild.1 mph96%30.06 "HgN/A
7:00 am62 °FCool.1 mph98%30.06 "HgN/A
6:00 am62 °FCool.1 mph98%30.06 "HgN/A
5:00 am62 °FCool.1 mph99%30.06 "HgN/A
4:00 am62 °FCool.No wind98%30.07 "HgN/A
Weather by CustomWeather, © 2017

See weather overviewHow to use our weather pages